Погода в Атяшеве

Россия / Республика Мордовия     55°09′44″N   45°39′59″E
темп.,
°C
ветер,
м/с
пор.,
м/с
влажн.,
%
обл.,
%
осадки,
мм/ч
давл.,
гПа
погр.,
м
23 апреля, пт
пт2300:00+6ююз22815 0.0 102324
03:00+5ю33825 0.0 102340
06:00+6ююв37825 0.0 1023145
09:00+12ю57582 0.0 1023650
12:00+14ю44466 0.0 10221482
15:00+15ююв444290 0.0 10212111
18:00+13ююв3758100 0.0 1019219
21:00+11юв4968100 0.0 1019308
24 апреля, сб
сб2400:00+10юв4978100 0.1 1017296
03:00+8юв3683100 0.3 1016139
06:00+8вюв3784100 0.0 1014220
09:00+10юв4671100 0.0 1012533
12:00+13юв5657100 0.0 10101343
15:00+14юв565294 0.2 10071368
18:00+10вюв71171100 0.2 1006745
21:00+6юз81192100 4.1 1005740
25 апреля, вс
вс2500:00+4зюз71285100 1.0 1006883
03:00+4юз6129255 1.1 1006556
06:00+3юз7128411 0.0 1007677
09:00+5зюз896961 0.0 10071231
12:00+7з695474 0.6 10091855
15:00+8зюз9114986 1.4 10102231
18:00+7зюз8126065 0.4 10111309
21:00+4юз613663 0.5 1013558
26 апреля, пн
пн2600:00+3юз714715 0.0 1014483
03:00+2юз6138158 0.0 1014429
06:00+3ююз5108198 0.0 1014377
09:00+4зюз71084100 0.1 1015946
12:00+8зюз685878 0.2 10151610
15:00+9зюз6104798 0.3 10142073
18:00+8юз3556100 0.0 1013805
21:00+6ю3679100 0.1 1012294
27 апреля, вт
вт2700:00+4ююз3496100 2.7 1012331
03:00+3з4692100 3.4 1011451
06:00+3юз479078 1.0 1011361
09:00+6юз68673 1.6 10111005
12:00+9зюз7851100 0.8 10101875
15:00+8зюз794971 2.0 10101761
18:00+7з7106575 1.3 10111055
21:00+4зюз410772 1.4 1013265